Location: Aniagüita
(10.0946°N, 66.9708°W)
Time: 16:15:38
(UTC+00:00)

SJ-6B - Pass Details

Date: 30 June 2022
Orbit: 507 x 575 km, 97.5° (Epoch: 06 August)

Event Time Altitude Azimuth Distance (km) Brightness Sun altitude
Exits shadow 23:47:06 15° 81° (E) 1,445 4.5 -12.9°
Maximum altitude 23:47:22 15° 76° (ENE) 1,441 4.5 -13.0°
Drops below altitude 10° 23:49:34 10° 40° (NE) 1,744 5.2 -13.5°
Sets 23:52:23 0° 17° (NNE) 2,644 6.4 -14.1°
